Simultaneous Nadir Overpasses (SNOs) Predictions

Prediction of SNOs between NOAA-19 and NPP Satellite Orbit:

Table of predicted SNOs for the next 14.0 days since TLE Epoch: 11/9/2018
Index Date (NOAA-19) Time (NOAA-19) Lat,Lon (NOAA-19) SZA (NOAA-19 ) Date (NPP) Time (NPP) Lat,Lon (NPP) SZA (NPP ) Distance(km) Time Diff (sec)
1 11/10/2018 15:09:19 -80.36, 89.33 80.35 11/10/2018 15:10:34 -80.38, 89.55 80.38 5.21 75
2 11/10/2018 16:00:18 80.37,-103.10 99.65 11/10/2018 16:01:19 80.37,-103.02 99.61 1.60 61
3 11/10/2018 16:51:19 -80.37, 64.16 80.35 11/10/2018 16:52:04 -80.39, 64.15 80.36 1.32 45
4 11/10/2018 17:42:19 80.37,-128.59 99.67 11/10/2018 17:42:49 80.38,-128.42 99.64 3.24 30
5 11/10/2018 18:33:20 -80.38, 38.66 80.33 11/10/2018 18:33:34 -80.39, 38.74 80.33 2.09 14
6 11/10/2018 19:24:19 80.39,-153.75 99.67 11/10/2018 19:24:19 80.38,-153.83 99.66 2.11 0
7 11/10/2018 20:15:20 -80.39, 13.50 80.33 11/10/2018 20:15:04 -80.39, 13.34 80.31 3.08 16
8 11/10/2018 21:06:20 80.39,-179.24 99.68 11/10/2018 21:05:49 80.38,-179.23 99.69 1.41 31
9 11/10/2018 21:57:21 -80.39, -12.00 80.31 11/10/2018 21:56:34 -80.39, -12.07 80.29 1.31 47
10 11/10/2018 22:48:21 80.39, 155.26 99.70 11/10/2018 22:47:19 80.38, 155.36 99.71 2.22 62




NCC Satellite Simultaneous Nadir Overpasses (SNOs) Prediction Service
